| time (UTC) | temp F | wind direction | speed knots | gust knots | rain 1hr in | rain 24hr in | rain mn in | humidity % | barometer mb |
| 20260505052418 | 62 | 218 | 0.0 | 0.0 | 0.00 | 0.00 | 0.00 | 72 | 1010.6 |
| 20260505051915 | 62 | 195 | 0.9 | 0.9 | 0.00 | 0.00 | 0.00 | 71 | 1010.9 |
| 20260505051412 | 62 | 204 | 0.9 | 0.9 | 0.00 | 0.00 | 0.00 | 71 | 1010.6 |
| 20260505050911 | 62 | 202 | 0.0 | 0.0 | 0.00 | 0.00 | 0.00 | 70 | 1010.6 |
| 20260505050409 | 63 | 217 | 0.0 | 0.0 | 0.00 | 0.00 | 0.00 | 69 | 1010.6 |
| 20260505041336 | 66 | 243 | 0.9 | 0.9 | 0.00 | 0.00 | 0.00 | 59 | 1010.2 |
| 20260505040833 | 66 | 29 | 1.7 | 1.7 | 0.00 | 0.00 | 0.00 | 59 | 1010.2 |
| 20260505040331 | 67 | 358 | 1.7 | 1.7 | 0.00 | 0.00 | 0.00 | 59 | 1009.9 |
| 20260505035827 | 67 | 286 | 1.7 | 1.7 | 0.00 | 0.00 | 0.00 | 59 | 1009.9 |
| 20260505035323 | 67 | 219 | 0.0 | 0.0 | 0.00 | 0.00 | 0.00 | 61 | 1009.6 |
| 20260505034821 | 67 | 339 | 0.9 | 0.9 | 0.00 | 0.00 | 0.00 | 61 | 1009.9 |
| 20260505034317 | 67 | 231 | 0.0 | 0.9 | 0.00 | 0.00 | 0.00 | 63 | 1009.6 |
| 20260505033814 | 67 | 176 | 0.0 | 0.0 | 0.00 | 0.00 | 0.00 | 61 | 1009.6 |
| 20260505033311 | 68 | 175 | 0.0 | 0.0 | 0.00 | 0.00 | 0.00 | 62 | 1009.6 |
| 20260505032810 | 69 | 175 | 0.0 | 0.0 | 0.00 | 0.00 | 0.00 | 61 | 1009.6 |
| 20260505032305 | 69 | 175 | 0.0 | 0.0 | 0.00 | 0.00 | 0.00 | 59 | 1009.6 |
| 20260505031803 | 70 | 174 | 0.0 | 0.0 | 0.00 | 0.00 | 0.00 | 57 | 1009.6 |
| 20260505031259 | 71 | 156 | 0.0 | 0.0 | 0.00 | 0.00 | 0.00 | 55 | 1009.6 |
| 20260505030756 | 73 | 176 | 0.9 | 0.9 | 0.00 | 0.00 | 0.00 | 53 | 1009.2 |
| 20260505030252 | 75 | 185 | 0.9 | 0.9 | 0.00 | 0.00 | 0.00 | 48 | 1009.2 |
| 20260505025747 | 75 | 222 | 0.9 | 0.9 | 0.00 | 0.00 | 0.00 | 47 | 1009.2 |
| 20260505025246 | 75 | 230 | 0.9 | 0.9 | 0.00 | 0.00 | 0.00 | 47 | 1009.2 |
| 20260505024744 | 76 | 227 | 0.0 | 0.9 | 0.00 | 0.00 | 0.00 | 46 | 1009.2 |
| 20260505024241 | 76 | 232 | 1.7 | 1.7 | 0.00 | 0.00 | 0.00 | 45 | 1008.9 |
| 20260505023738 | 76 | 224 | 0.0 | 0.0 | 0.00 | 0.00 | 0.00 | 45 | 1008.9 |
| 20260505023235 | 77 | 210 | 0.9 | 0.9 | 0.00 | 0.00 | 0.00 | 44 | 1008.9 |
| 20260505022732 | 77 | 213 | 0.9 | 0.9 | 0.00 | 0.00 | 0.00 | 43 | 1008.9 |
| 20260505022229 | 79 | 226 | 1.7 | 1.7 | 0.00 | 0.00 | 0.00 | 42 | 1008.9 |
| 20260505021726 | 79 | 236 | 0.9 | 1.7 | 0.00 | 0.00 | 0.00 | 41 | 1009.2 |
| 20260505021223 | 78 | 219 | 0.9 | 0.9 | 0.00 | 0.00 | 0.00 | 42 | 1008.9 |
| 20260505020719 | 79 | 219 | 0.9 | 0.9 | 0.00 | 0.00 | 0.00 | 41 | 1008.5 |
| 20260505020214 | 79 | 227 | 0.9 | 0.9 | 0.00 | 0.00 | 0.00 | 41 | 1008.9 |
| 20260505015712 | 78 | 299 | 1.7 | 1.7 | 0.00 | 0.00 | 0.00 | 41 | 1008.9 |
| 20260505015209 | 78 | 245 | 1.7 | 2.6 | 0.00 | 0.00 | 0.00 | 40 | 1008.9 |
| 20260505014705 | 79 | 252 | 3.5 | 5.2 | 0.00 | 0.00 | 0.00 | 39 | 1008.9 |
| 20260505014203 | 79 | 215 | 1.7 | 1.7 | 0.00 | 0.00 | 0.00 | 40 | 1008.9 |
| 20260505013700 | 79 | 247 | 0.9 | 0.9 | 0.00 | 0.00 | 0.00 | 39 | 1009.2 |
| 20260505013157 | 79 | 216 | 1.7 | 1.7 | 0.00 | 0.00 | 0.00 | 39 | 1009.2 |
| 20260505012655 | 79 | 207 | 1.7 | 1.7 | 0.00 | 0.00 | 0.00 | 39 | 1008.9 |
| 20260505012152 | 79 | 197 | 2.6 | 2.6 | 0.00 | 0.00 | 0.00 | 39 | 1008.9 |
| 20260505011653 | 79 | 225 | 0.0 | 0.0 | 0.00 | 0.00 | 0.00 | 37 | 1009.2 |
| 20260505011150 | 80 | 252 | 2.6 | 2.6 | 0.00 | 0.00 | 0.00 | 38 | 1009.2 |
| 20260505010645 | 79 | 233 | 0.9 | 1.7 | 0.00 | 0.00 | 0.00 | 38 | 1009.2 |
| 20260505010142 | 80 | 256 | 1.7 | 5.2 | 0.00 | 0.00 | 0.00 | 38 | 1008.9 |
| 20260505005638 | 79 | 234 | 0.9 | 0.9 | 0.00 | 0.00 | 0.00 | 38 | 1009.2 |
| 20260505005135 | 80 | 256 | 2.6 | 2.6 | 0.00 | 0.00 | 0.00 | 36 | 1009.2 |
| 20260505004632 | 79 | 328 | 0.9 | 2.6 | 0.00 | 0.00 | 0.00 | 37 | 1009.2 |
| 20260505004129 | 80 | 354 | 3.5 | 3.5 | 0.00 | 0.00 | 0.00 | 37 | 1009.2 |
| 20260505003626 | 80 | 141 | 0.9 | 1.7 | 0.00 | 0.00 | 0.00 | 37 | 1009.2 |
| 20260505003124 | 80 | 225 | 3.5 | 5.2 | 0.00 | 0.00 | 0.00 | 37 | 1009.2 |
| 20260505002620 | 80 | 255 | 2.6 | 3.5 | 0.00 | 0.00 | 0.00 | 35 | 1009.2 |
| 20260505002118 | 80 | 243 | 1.7 | 2.6 | 0.00 | 0.00 | 0.00 | 35 | 1009.2 |
| 20260505001615 | 80 | 218 | 0.0 | 0.0 | 0.00 | 0.00 | 0.00 | 35 | 1009.2 |
| 20260505001113 | 80 | 257 | 0.9 | 0.9 | 0.00 | 0.00 | 0.00 | 36 | 1009.6 |
| 20260505000609 | 80 | 216 | 0.9 | 0.9 | 0.00 | 0.00 | 0.00 | 35 | 1009.2 |
| 20260505000107 | 79 | 250 | 3.5 | 3.5 | 0.00 | 0.00 | 0.00 | 36 | 1009.6 |
| 20260504235603 | 80 | 233 | 3.5 | 3.5 | 0.00 | 0.00 | 0.00 | 35 | 1009.6 |
| 20260504235100 | 79 | 234 | 3.5 | 5.2 | 0.00 | 0.00 | 0.00 | 36 | 1009.6 |
| 20260504234557 | 78 | 228 | 1.7 | 1.7 | 0.00 | 0.00 | 0.00 | 37 | 1009.6 |
| 20260504234054 | 80 | 247 | 1.7 | 2.6 | 0.00 | 0.00 | 0.00 | 35 | 1009.6 |
| 20260504233549 | 80 | 223 | 3.5 | 5.2 | 0.00 | 0.00 | 0.00 | 35 | 1009.6 |
| 20260504233046 | 80 | 184 | 2.6 | 3.5 | 0.00 | 0.00 | 0.00 | 35 | 1009.6 |
| 20260504232543 | 80 | 263 | 4.3 | 6.1 | 0.00 | 0.00 | 0.00 | 36 | 1009.6 |
| 20260504232041 | 80 | 245 | 1.7 | 1.7 | 0.00 | 0.00 | 0.00 | 35 | 1009.6 |
| 20260504231537 | 80 | 255 | 0.9 | 0.9 | 0.00 | 0.00 | 0.00 | 34 | 1009.2 |
| 20260504231033 | 79 | 239 | 2.6 | 3.5 | 0.00 | 0.00 | 0.00 | 35 | 1009.6 |
| 20260504230530 | 79 | 234 | 2.6 | 3.5 | 0.00 | 0.00 | 0.00 | 36 | 1009.6 |
| 20260504230029 | 79 | 290 | 2.6 | 3.5 | 0.00 | 0.00 | 0.00 | 36 | 1009.6 |
| 20260504225526 | 80 | 277 | 3.5 | 3.5 | 0.00 | 0.00 | 0.00 | 36 | 1009.6 |
| 20260504225023 | 79 | 220 | 0.9 | 0.9 | 0.00 | 0.00 | 0.00 | 36 | 1009.6 |
| 20260504224519 | 80 | 162 | 2.6 | 3.5 | 0.00 | 0.00 | 0.00 | 35 | 1009.6 |
| 20260504224017 | 79 | 218 | 2.6 | 2.6 | 0.00 | 0.00 | 0.00 | 37 | 1009.9 |
| 20260504223513 | 79 | 237 | 0.9 | 1.7 | 0.00 | 0.00 | 0.00 | 36 | 1009.9 |
| 20260504223009 | 80 | 239 | 7.0 | 7.8 | 0.00 | 0.00 | 0.00 | 36 | 1009.9 |
| 20260504222506 | 79 | 196 | 1.7 | 2.6 | 0.00 | 0.00 | 0.00 | 36 | 1009.9 |
| 20260504222004 | 79 | 240 | 4.3 | 5.2 | 0.00 | 0.00 | 0.00 | 35 | 1009.9 |
| 20260504221501 | 79 | 329 | 6.1 | 7.0 | 0.00 | 0.00 | 0.00 | 37 | 1009.9 |
| 20260504220958 | 80 | 239 | 2.6 | 3.5 | 0.00 | 0.00 | 0.00 | 36 | 1009.9 |
| 20260504220454 | 78 | 263 | 2.6 | 3.5 | 0.00 | 0.00 | 0.00 | 37 | 1010.2 |
| 20260504215951 | 79 | 332 | 5.2 | 6.1 | 0.00 | 0.00 | 0.00 | 36 | 1010.2 |
| 20260504215447 | 78 | 247 | 1.7 | 2.6 | 0.00 | 0.00 | 0.00 | 35 | 1010.6 |
| 20260504214944 | 80 | 351 | 3.5 | 3.5 | 0.00 | 0.00 | 0.00 | 34 | 1010.2 |
| 20260504214441 | 80 | 257 | 3.5 | 3.5 | 0.00 | 0.00 | 0.00 | 33 | 1010.2 |
| 20260504213937 | 79 | 260 | 3.5 | 5.2 | 0.00 | 0.00 | 0.00 | 34 | 1010.2 |
| 20260504213433 | 80 | 256 | 4.3 | 6.1 | 0.00 | 0.00 | 0.00 | 32 | 1010.2 |
| 20260504212931 | 80 | 293 | 4.3 | 6.1 | 0.00 | 0.00 | 0.00 | 36 | 1010.2 |
| 20260504212426 | 79 | 236 | 2.6 | 3.5 | 0.00 | 0.00 | 0.00 | 36 | 1010.2 |
| 20260504211925 | 80 | 245 | 7.8 | 7.8 | 0.00 | 0.00 | 0.00 | 35 | 1010.2 |
| 20260504211420 | 79 | 259 | 2.6 | 3.5 | 0.00 | 0.00 | 0.00 | 36 | 1010.2 |
| 20260504210918 | 79 | 332 | 2.6 | 3.5 | 0.00 | 0.00 | 0.00 | 38 | 1010.2 |
| 20260504210415 | 79 | 305 | 1.7 | 1.7 | 0.00 | 0.00 | 0.00 | 37 | 1010.2 |
| 20260504205912 | 78 | 36 | 3.5 | 3.5 | 0.00 | 0.00 | 0.00 | 38 | 1010.2 |
| 20260504205410 | 79 | 351 | 5.2 | 7.8 | 0.00 | 0.00 | 0.00 | 36 | 1010.2 |
| 20260504204908 | 79 | 190 | 1.7 | 1.7 | 0.00 | 0.00 | 0.00 | 38 | 1010.2 |
| 20260504204406 | 79 | 340 | 1.7 | 1.7 | 0.00 | 0.00 | 0.00 | 37 | 1010.2 |
| 20260504203905 | 78 | 104 | 0.9 | 1.7 | 0.00 | 0.00 | 0.00 | 39 | 1010.6 |
| 20260504203402 | 79 | 268 | 1.7 | 3.5 | 0.00 | 0.00 | 0.00 | 37 | 1010.6 |
| 20260504202857 | 78 | 238 | 1.7 | 1.7 | 0.00 | 0.00 | 0.00 | 37 | 1010.2 |
| 20260504202354 | 78 | 341 | 2.6 | 5.2 | 0.00 | 0.00 | 0.00 | 37 | 1010.6 |
| 20260504201851 | 77 | 277 | 2.6 | 3.5 | 0.00 | 0.00 | 0.00 | 37 | 1010.2 |
| 20260504201349 | 77 | 349 | 1.7 | 2.6 | 0.00 | 0.00 | 0.00 | 38 | 1010.6 |
| 20260504200846 | 78 | 311 | 1.7 | 2.6 | 0.00 | 0.00 | 0.00 | 37 | 1010.2 |
| 20260504200342 | 78 | 248 | 6.1 | 7.0 | 0.00 | 0.00 | 0.00 | 36 | 1010.6 |
| 20260504195839 | 78 | 206 | 0.9 | 1.7 | 0.00 | 0.00 | 0.00 | 38 | 1010.6 |
| 20260504195334 | 77 | 189 | 1.7 | 2.6 | 0.00 | 0.00 | 0.00 | 40 | 1010.6 |
| 20260504194832 | 77 | 1 | 4.3 | 6.1 | 0.00 | 0.00 | 0.00 | 38 | 1010.6 |
| 20260504194327 | 76 | 316 | 3.5 | 5.2 | 0.00 | 0.00 | 0.00 | 40 | 1010.6 |
| 20260504193823 | 78 | 204 | 2.6 | 3.5 | 0.00 | 0.00 | 0.00 | 39 | 1010.6 |
| 20260504193321 | 77 | 241 | 1.7 | 1.7 | 0.00 | 0.00 | 0.00 | 40 | 1010.2 |
| 20260504192820 | 77 | 260 | 2.6 | 7.0 | 0.00 | 0.00 | 0.00 | 41 | 1010.6 |
| 20260504192317 | 77 | 222 | 2.6 | 2.6 | 0.00 | 0.00 | 0.00 | 40 | 1010.6 |
| 20260504191816 | 76 | 215 | 0.9 | 0.9 | 0.00 | 0.00 | 0.00 | 41 | 1010.6 |
| 20260504191313 | 77 | 233 | 6.1 | 7.8 | 0.00 | 0.00 | 0.00 | 40 | 1010.6 |
| 20260504190808 | 77 | 246 | 2.6 | 2.6 | 0.00 | 0.00 | 0.00 | 40 | 1010.6 |
| 20260504190304 | 76 | 236 | 1.7 | 1.7 | 0.00 | 0.00 | 0.00 | 40 | 1010.6 |
| 20260504185801 | 76 | 281 | 2.6 | 2.6 | 0.00 | 0.00 | 0.00 | 42 | 1010.9 |
| 20260504185258 | 74 | 22 | 2.6 | 2.6 | 0.00 | 0.00 | 0.00 | 43 | 1010.6 |
| 20260504184754 | 76 | 343 | 4.3 | 5.2 | 0.00 | 0.00 | 0.00 | 42 | 1010.9 |
| 20260504184250 | 75 | 289 | 4.3 | 5.2 | 0.00 | 0.00 | 0.00 | 42 | 1010.9 |
| 20260504183746 | 75 | 13 | 1.7 | 2.6 | 0.00 | 0.00 | 0.00 | 43 | 1010.9 |
| 20260504183243 | 75 | 168 | 3.5 | 3.5 | 0.00 | 0.00 | 0.00 | 42 | 1010.6 |
| 20260504182741 | 75 | 256 | 0.9 | 0.9 | 0.00 | 0.00 | 0.00 | 43 | 1011.3 |
| 20260504182238 | 75 | 308 | 5.2 | 6.1 | 0.00 | 0.00 | 0.00 | 43 | 1010.9 |
| 20260504181736 | 74 | 180 | 0.0 | 0.0 | 0.00 | 0.00 | 0.00 | 47 | 1010.9 |
| 20260504181233 | 74 | 34 | 1.7 | 1.7 | 0.00 | 0.00 | 0.00 | 45 | 1010.6 |
| 20260504180732 | 75 | 220 | 1.7 | 1.7 | 0.00 | 0.00 | 0.00 | 46 | 1010.9 |
| 20260504180231 | 74 | 188 | 0.0 | 0.9 | 0.00 | 0.00 | 0.00 | 42 | 1010.9 |
| 20260504175728 | 74 | 279 | 2.6 | 3.5 | 0.00 | 0.00 | 0.00 | 44 | 1010.9 |
| 20260504175224 | 74 | 274 | 2.6 | 2.6 | 0.00 | 0.00 | 0.00 | 46 | 1010.9 |
| 20260504174722 | 73 | 158 | 3.5 | 3.5 | 0.00 | 0.00 | 0.00 | 49 | 1010.9 |
| 20260504174220 | 72 | 235 | 1.7 | 1.7 | 0.00 | 0.00 | 0.00 | 49 | 1010.9 |
| 20260504173716 | 72 | 257 | 1.7 | 1.7 | 0.00 | 0.00 | 0.00 | 51 | 1010.9 |
| 20260504173213 | 72 | 323 | 2.6 | 2.6 | 0.00 | 0.00 | 0.00 | 49 | 1010.9 |
| 20260504172709 | 72 | 241 | 0.9 | 0.9 | 0.00 | 0.00 | 0.00 | 48 | 1010.9 |
| 20260504172206 | 71 | 212 | 1.7 | 2.6 | 0.00 | 0.00 | 0.00 | 50 | 1010.9 |
| 20260504171702 | 71 | 181 | 0.9 | 1.7 | 0.00 | 0.00 | 0.00 | 50 | 1010.9 |
| 20260504171200 | 70 | 17 | 1.7 | 2.6 | 0.00 | 0.00 | 0.00 | 52 | 1010.6 |
| 20260504170656 | 70 | 265 | 1.7 | 2.6 | 0.00 | 0.00 | 0.00 | 50 | 1010.6 |
| 20260504170154 | 70 | 230 | 1.7 | 1.7 | 0.00 | 0.00 | 0.00 | 50 | 1010.9 |
| 20260504160112 | 66 | 237 | 1.7 | 2.6 | 0.00 | 0.00 | 0.00 | 57 | 1010.6 |
| 20260504151039 | 58 | 181 | 0.0 | 0.0 | 0.00 | 0.00 | 0.00 | 83 | 1010.2 |
| 20260504150536 | 59 | 184 | 0.0 | 0.0 | 0.00 | 0.00 | 0.00 | 84 | 1010.2 |
| 20260504141002 | 54 | 192 | 0.0 | 0.0 | 0.00 | 0.00 | 0.00 | 85 | 1009.9 |
| 20260504140459 | 54 | 192 | 0.0 | 0.9 | 0.00 | 0.00 | 0.00 | 85 | 1009.9 |
| 20260504130424 | 53 | 205 | 0.0 | 0.0 | 0.00 | 0.00 | 0.00 | 88 | 1009.6 |
| 20260504110310 | 54 | 188 | 0.9 | 0.9 | 0.00 | 0.00 | 0.00 | 87 | 1009.6 |
| 20260504100228 | 56 | 192 | 0.0 | 0.0 | 0.00 | 0.00 | 0.00 | 86 | 1009.2 |
| 20260504081622 | 58 | 198 | 0.0 | 0.0 | 0.00 | 0.00 | 0.00 | 81 | 1009.2 |
| 20260504081117 | 58 | 198 | 0.9 | 0.9 | 0.00 | 0.00 | 0.00 | 82 | 1009.2 |
| 20260504080614 | 58 | 198 | 0.0 | 0.0 | 0.00 | 0.00 | 0.00 | 82 | 1009.6 |
| 20260504080111 | 58 | 198 | 0.0 | 0.0 | 0.00 | 0.00 | 0.00 | 81 | 1009.6 |